Showing default

CSG-1, 44873

Orbit data source: Space-Track

CSG-1, 44873 is an Italian payload satellite in SSO that was launched on Wed, 18 Dec 2019 UTC via a SOYUZ-ST-A launch vehicle from the French Guiana (FRGUI). Payload-class satellites include a variety of spacecraft equipped with specific instruments for various scientific and technological missions. These include communications satellites like Starlink; space stations such as the ISS; scientific satellites like the Hubble; Earth observation satellites from companies like Planet Labs, Umbra, and HawkEye 360; GPS; miniature CubeSats for education and research; and military/defense satellites.

Loading next visibility...
Identifier
44873, 2019-092A
Orbit
SSO
Country
Flag of ITIT
Related business
Manufacturer
Thales Alenia
Mission
Operational Defense Radar Imaging
Bus & Motor
PRIMA, AOCS
Mass
2,205 kg wet, ~1,800 kg dry
Launch date (UTC)
2019-12-18 (6 years ago)
Launch vehicle
SOYUZ-ST-A
Launch site
French Guiana (FRGUI)
Object type
Payload
Rocket body
Debris
Shape & HBR
Box + 3 Pan, Unknown HBR
Radar Cross Section
8.940 m², Large (>1 m²)

Expand to show TLE details & history
Last TLE update: 10 hours ago

TLE from 10 hours ago
0 CSG-1
1 44873U 19092A   25242.95863734  .00001028  00000-0  13568-3 0  9994
2 44873  97.8904  65.7737 0001335  85.6279 274.5087 14.82148618308488
Epoch: 2025-08-30T23:00Z
TLE epoch observation values (Epoch: 2025-08-30T23:00:26.266Z)
Latitude
0.00003°
Longitude
101.27879°
Altitude
625.502 km
Speed
7.546 km/s
True Right ascension
04h 23m 05s
True Declination
0° 00' 00"
Sunlit
Object was in daylight at epoch
Visualization orbit readout
Latitude
Unknown
Longitude
Unknown
Altitude
Unknown
Speed
Unknown
Apparent Right ascension
Unknown
Apparent Declination
Unknown
Sunlit
N/A
Visualization observer readout
Local Sidereal Time
00:11:58
Azimuth
Unknown
Elevation
Unknown
Doppler factor
Unknown
Orbital elements
Apogee altitude
620.522 km
Perigee altitude
618.654 km
Semi-major axis
6,997.725 km
Eccentricity
0.00013
Inclination
97.8904°
RAAN
65.7737°
Arg. of periapsis
85.6279°
True anomaly
274.49345°
Mean anomaly
274.5087°
Eccentric anomaly
274.50107°
Mean motion
3.70773 °/min
Orbital period
97.09 mins
BSTAR
0.00013568
Loading maneuver chart data...
Computing Atmospheric mass density...
Loading historical data...
Loading historical data...
Loading historical data...
Loading historical data...
Loading historical data...
Loading historical data...
Loading historical data...

Documentation

Showing up to 5 results
|